Weather in Delft

Netherlands     52°00′21″N   4°21′40″E
temp.,
°C
wind,
m/s
gust,
m/s
humid.,
%
clouds,
%
prec.,
mm/h
press.,
hPa
HPBL,
m
26 june, sun
sun2623:00+16ese1294100 0.1 1011142
02:00+16ssw4893100 1.3 1012455
05:00+14ssw4890100 0.0 1012354
08:00+15ssw4786100 0.0 1014445
11:00+17ssw5666100 0.0 1015801
14:00+19sw4653100 0.0 10151352
17:00+20sw2547100 0.0 10151501
20:00+18nw3357100 0.0 1015181
27 june, mon
mon2723:00+17ne2364100 0.0 101680
02:00+17e2370100 0.0 101569
05:00+17s237097 0.0 101581
08:00+17ssw247035 0.0 1015169
11:00+19sw466456 0.3 1016682
14:00+16nw4562100 0.9 1017414
17:00+18w36550 0.0 1018729
20:00+18wsw36593 0.0 1019716
28 june, tue
tue2823:00+15sw37715 0.0 1020344
02:00+15sw47764 0.0 1020365
05:00+14ssw47784 0.0 1021370
08:00+15ssw45710 0.0 1021481
11:00+18sw46515 0.0 1021895
14:00+20wsw35465 0.0 10201220
17:00+21wnw2544100 0.0 10181402
20:00+22ne3352100 0.0 1017111
29 june, wed
wed2923:00+19ese3664100 0.0 1017126
02:00+17se346764 0.0 101677
05:00+16sse35677 0.0 101595
08:00+18s3765100 0.0 1015219
11:00+21sw455227 0.0 1015568
14:00+22w45510 0.0 1015991
17:00+23nw34474 0.0 1014939
20:00+21n4559100 0.0 1014240
30 june, thu
thu3023:00+18nne36711 0.0 1014133
02:00+18ene35770 0.0 101391
05:00+17e35830 0.0 101286
08:00+19ese12740 0.0 1012128
11:00+24ssw13515 0.0 1011625
14:00+26w2547100 0.0 10101357
17:00+21nw6770100 0.0 1009343
20:00+18nw3694100 4.1 1008220